User: anonymous   Login
Location: Unspecified
(34.8840°S, 56.1820°W)
Time: 00:38:57
(UTC+00:00)
Language:

LANDSAT 8 - Orbit

View from above orbital plane
View from above orbital plane
View from above satellite
View from above satellite

Ground track
Ground track

The orbit data is extracted from the following two-line orbital elements,

1 39084U 13008A   19082.75890280 -.00000185  00000-0 -30999-4 0  9995
2 39084  98.1935 153.9373 0001289  80.3954 279.7383 14.57113226324922
Epoch (UTC): 23 March 2019 18:12:49
Eccentricity: 0.0001289
inclination: 98.1935°
perigee height: 701 km
apogee height: 703 km
right ascension of ascending node: 153.9373°
argument of perigee: 80.3954°
revolutions per day: 14.57113226
mean anomaly at epoch: 279.7383°
orbit number at epoch: 32492

The dashed part of the orbit path shows where the satellite is in the earth's shadow,  

DLR